Location: Crescent
(42.8242°N, 73.7329°W)
Time: 08:30:17
(UTC+00:00)

Vanguard 1 Rocket - Pass Details

Date: 23 February 2026
Orbit: 653 x 4214 km, 34.3° (Epoch: 12 March)

Event Time Altitude Azimuth Distance (km) Brightness Sun altitude
Rises 22:26:46 0° 276° (W) 5,529 13.0 1.0°
Reaches altitude 10° 22:30:06 10° 269° (W) 4,933 13.1 0.4°
Maximum altitude 22:43:54 39° 207° (SSW) 4,353 11.3 -2.1°
Drops below altitude 10° 23:05:10 10° 149° (SSE) 7,371 11.8 -5.9°
Sets 23:11:51 0° 142° (SE) 8,441 12.0 -7.1°
